TimePDT,TemperatureF,Dew PointF,Humidity,Sea Level PressureIn,VisibilityMPH,Wind Direction,Wind SpeedMPH,Gust SpeedMPH,PrecipitationIn,Events,Conditions,WindDirDegrees,DateUTC
12:04 AM,48.2,44.6,87,30.10,2.5,Calm,Calm,-,N/A,,Scattered Clouds,0,2012-09-29 07:04:00
12:17 AM,46.4,44.6,93,30.11,5.0,Calm,Calm,-,N/A,,Partly Cloudy,0,2012-09-29 07:17:00
12:34 AM,46.4,44.6,93,30.11,1.8,Calm,Calm,-,N/A,,Mostly Cloudy,0,2012-09-29 07:34:00
12:39 AM,46.4,42.8,87,30.11,0.8,Calm,Calm,-,N/A,,Mostly Cloudy,0,2012-09-29 07:39:00
12:53 AM,46.9,44.1,90,30.11,0.5,Calm,Calm,-,N/A,Fog,Fog,0,2012-09-29 07:53:00
1:02 AM,48.2,46.4,93,30.11,1.5,Calm,Calm,-,N/A,,Overcast,0,2012-09-29 08:02:00
1:11 AM,46.4,46.4,100,30.11,2.0,Calm,Calm,-,N/A,,Overcast,0,2012-09-29 08:11:00
1:17 AM,48.2,46.4,93,30.12,1.2,Calm,Calm,-,N/A,,Overcast,0,2012-09-29 08:17:00
1:30 AM,48.2,46.4,93,30.12,2.0,Calm,Calm,-,N/A,,Overcast,0,2012-09-29 08:30:00
1:49 AM,48.2,46.4,93,30.13,5.0,Calm,Calm,-,N/A,,Overcast,0,2012-09-29 08:49:00
1:53 AM,48.9,46.9,93,30.13,6.0,Calm,Calm,-,N/A,,Overcast,0,2012-09-29 08:53:00
2:53 AM,50.0,46.9,89,30.13,6.0,Calm,Calm,-,N/A,,Overcast,0,2012-09-29 09:53:00
3:53 AM,50.0,46.9,89,30.14,6.0,Calm,Calm,-,N/A,,Overcast,0,2012-09-29 10:53:00
4:53 AM,48.9,46.9,93,30.14,6.0,Calm,Calm,-,N/A,,Overcast,0,2012-09-29 11:53:00
5:53 AM,48.9,46.0,90,30.15,6.0,Calm,Calm,-,N/A,,Mostly Cloudy,0,2012-09-29 12:53:00
6:12 AM,48.2,44.6,87,30.16,6.0,Calm,Calm,-,N/A,,Scattered Clouds,0,2012-09-29 13:12:00
6:44 AM,44.6,42.8,93,30.17,1.8,Calm,Calm,-,N/A,,Partly Cloudy,0,2012-09-29 13:44:00
6:53 AM,45.0,42.1,90,30.18,3.0,Calm,Calm,-,N/A,,Scattered Clouds,0,2012-09-29 13:53:00
7:06 AM,44.6,42.8,93,30.18,1.8,Calm,Calm,-,N/A,,Scattered Clouds,0,2012-09-29 14:06:00
7:10 AM,44.6,41.0,87,30.18,1.0,Calm,Calm,-,N/A,,Mist,0,2012-09-29 14:10:00
7:17 AM,44.6,42.8,93,30.18,0.8,Calm,Calm,-,N/A,,Mist,0,2012-09-29 14:17:00
7:22 AM,46.4,44.6,93,30.18,1.2,Calm,Calm,-,N/A,,Partly Cloudy,0,2012-09-29 14:22:00
7:24 AM,46.4,44.6,93,30.18,2.0,Calm,Calm,-,N/A,,Partly Cloudy,0,2012-09-29 14:24:00
7:31 AM,46.4,44.6,93,30.18,5.0,Calm,Calm,-,N/A,,Clear,0,2012-09-29 14:31:00
7:53 AM,46.9,44.1,90,30.19,5.0,Calm,Calm,-,N/A,,Clear,0,2012-09-29 14:53:00
8:49 AM,51.8,46.4,82,30.20,6.0,Calm,Calm,-,N/A,,Mostly Cloudy,0,2012-09-29 15:49:00
8:53 AM,51.1,48.0,89,30.21,6.0,Calm,Calm,-,N/A,,Mostly Cloudy,0,2012-09-29 15:53:00
9:53 AM,54.0,50.0,86,30.23,6.0,Calm,Calm,-,N/A,,Overcast,0,2012-09-29 16:53:00
10:19 AM,57.2,51.8,82,30.23,6.0,NNE,4.6,-,N/A,,Haze,20,2012-09-29 17:19:00
10:53 AM,59.0,48.9,69,30.24,7.0,Variable,5.8,-,N/A,,Clear,0,2012-09-29 17:53:00
11:53 AM,61.0,46.9,60,30.24,7.0,Variable,5.8,-,N/A,,Clear,0,2012-09-29 18:53:00
12:53 PM,62.1,45.0,53,30.25,8.0,NW,5.8,-,N/A,,Clear,320,2012-09-29 19:53:00
1:53 PM,62.1,46.0,56,30.25,7.0,NW,6.9,-,N/A,,Clear,320,2012-09-29 20:53:00
2:53 PM,59.0,46.0,62,30.28,7.0,WNW,11.5,-,N/A,,Clear,300,2012-09-29 21:53:00
3:53 PM,61.0,46.9,60,30.27,8.0,NNW,11.5,-,N/A,,Clear,330,2012-09-29 22:53:00
4:53 PM,59.0,46.0,62,30.27,8.0,WNW,9.2,16.1,N/A,,Clear,300,2012-09-29 23:53:00
5:53 PM,57.9,46.0,65,30.27,7.0,NW,9.2,-,N/A,,Clear,320,2012-09-30 00:53:00
6:53 PM,53.6,44.6,72,30.28,7.0,Calm,Calm,-,N/A,,Clear,0,2012-09-30 01:53:00
7:53 PM,50.0,44.1,80,30.29,8.0,NE,3.5,-,N/A,,Clear,50,2012-09-30 02:53:00
8:53 PM,46.0,43.0,89,30.31,8.0,Calm,Calm,-,N/A,,Clear,0,2012-09-30 03:53:00
9:53 PM,46.0,43.0,89,30.32,7.0,Variable,3.5,-,N/A,,Clear,0,2012-09-30 04:53:00
10:53 PM,45.0,42.1,90,30.31,7.0,Calm,Calm,-,N/A,,Clear,0,2012-09-30 05:53:00
11:30 PM,44.6,41.0,87,30.33,7.0,Calm,Calm,-,N/A,,Mostly Cloudy,0,2012-09-30 06:30:00
11:53 PM,45.0,42.1,90,30.33,8.0,Calm,Calm,-,N/A,,Overcast,0,2012-09-30 06:53:00